STARLINK-34466, 66226

Orbit data source: Space-Track

STARLINK-34466, 66226 is a payload satellite owned by SpaceX/Seattle (US) in LEO that was launched on Tue, 28 Oct 2025 UTC via an FALCON 9 launch vehicle from the Air Force Western Test Range (AFWTR). Payload-class satellites include a variety of spacecraft equipped with specific instruments for various scientific and technological missions. These include communications satellites like Starlink; space stations such as the ISS; scientific satellites like the Hubble; Earth observation satellites from companies like Planet Labs, Umbra, and HawkEye 360; GPS; miniature CubeSats for education and research; and military/defense satellites.

Loading next visibility...
Identifier
66226, 2025-244W
Orbit
LEO
Country
Flag of USUS
Related business
Manufacturer
SpaceX/Seattle
Mission
Operational Commercial Communications
Bus & Motor
STARLINK V2MO, Unknown motor
Mass
575 kg wet, ~530 kg dry
Launch date (UTC)
2025-10-28 (8 months ago)
Launch vehicle
FALCON 9
Launch site
Air Force Western Test Range (AFWTR)
Object type
Payload
Rocket body
Debris
Shape & HBR
Box + 2 Pan, 17.7 m
Radar Cross Section
36.964 m², Large (>1 m²)

Expand to show TLE details & history
Last TLE update: 2 days ago

TLE from 2 days ago
0 STARLINK-34466
1 66226U 25244W   26170.27522591  .00017374  00000-0  52401-3 0  9995
2 66226  53.1597 117.2819 0001040  77.0932 283.0187 15.34408020 37226
Epoch: 2026-06-19T06:36Z
TLE epoch observation values (Epoch: 2026-06-19T06:36:19.518Z)
Latitude
-0°
Longitude
110.69403°
Altitude
463.421 km
Speed
7.636 km/s
True Right ascension
07h 49m 07s
True Declination
0° 00' 00"
Sunlit
Object was in daylight at epoch
Visualization orbit readout
Latitude
Unknown
Longitude
Unknown
Altitude
Unknown
Speed
Unknown
Apparent Right ascension
Unknown
Apparent Declination
Unknown
Sunlit
N/A
Visualization observer readout
Local Sidereal Time
07:18:21
Azimuth
Unknown
Elevation
Unknown
Doppler factor
Unknown
Orbital elements
Apogee altitude
463.648 km
Perigee altitude
462.225 km
Semi-major axis
6,841.073 km
Eccentricity
0.0001
Inclination
53.1597°
RAAN
117.2819°
Arg. of periapsis
77.0932°
True anomaly
283.00709°
Mean anomaly
283.0187°
Eccentric anomaly
283.01289°
Mean motion
3.83581 °/min
Orbital period
93.85 mins
BSTAR
0.00052401
Loading maneuver chart data...
Computing Atmospheric mass density...
Loading historical data...
Loading historical data...
Loading historical data...
Loading historical data...
Loading historical data...
Loading historical data...
Loading historical data...

Documentation

Showing up to 5 results
|